Date,TemperatureHighF,TemperatureAvgF,TemperatureLowF,DewpointHighF,DewpointAvgF,DewpointLowF,HumidityHigh,HumidityAvg,HumidityLow,PressureMaxIn,PressureMinIn,WindSpeedMaxMPH,WindSpeedAvgMPH,GustSpeedMaxMPH,PrecipitationSumIn
2013-2-1,6,-3,-11,2,-10,-17,84,72,56,30.42,30.14,12,1,14,0.03
2013-2-2,14,7,2,8,1,-3,85,76,62,30.27,30.05,8,0,8,0.01
2013-2-3,16,11,4,9,5,-1,86,76,63,30.16,30.03,14,2,16,0.04
2013-2-4,18,12,5,12,4,0,89,71,54,30.14,29.81,9,0,9,0.02
2013-2-5,30,23,9,26,17,4,90,80,64,30.12,29.71,11,1,12,0.04
2013-2-6,26,16,5,20,12,0,87,82,77,30.16,29.98,8,1,12,0.01
2013-2-7,27,25,21,23,22,18,92,85,78,30.29,30.03,9,1,14,0.00
2013-2-8,26,23,21,21,18,15,85,79,72,30.41,30.25,10,1,13,0.00
2013-2-9,32,28,25,28,25,21,92,87,83,30.26,29.95,16,2,16,0.00
2013-2-10,34,30,28,32,29,25,96,93,87,29.95,29.29,13,2,15,0.33
2013-2-11,30,25,17,28,20,12,94,83,76,30.08,29.36,21,4,21,0.00
2013-2-12,34,25,16,25,19,11,86,77,64,30.09,29.84,15,2,16,0.00
2013-2-13,41,30,18,33,24,14,90,78,63,29.84,29.58,10,0,11,0.04
2013-2-14,34,27,14,32,20,5,93,77,54,30.22,29.60,14,1,14,0.04
2013-2-15,18,11,5,7,3,0,81,70,58,30.36,30.22,14,2,14,0.00
2013-2-16,19,10,2,8,4,-2,85,75,61,30.33,30.17,8,0,8,0.00
2013-2-17,32,22,9,24,15,4,85,75,64,30.18,29.66,18,2,18,0.00
2013-2-18,35,23,6,31,18,2,87,78,70,29.86,29.54,18,3,19,0.00
2013-2-19,6,4,-1,2,-4,-9,80,69,61,30.46,29.86,15,4,18,0.00
2013-2-20,18,7,-5,5,-2,-10,78,66,52,30.55,30.46,6,0,6,0.00
2013-2-21,23,16,7,13,7,1,78,69,56,30.51,30.13,11,2,11,0.00
2013-2-22,29,24,19,22,19,13,91,84,70,30.14,29.90,8,1,9,0.11
2013-2-23,29,23,17,23,18,13,87,82,72,30.01,29.89,10,1,10,0.00
2013-2-24,35,22,8,24,15,3,82,73,60,30.15,30.00,5,0,6,0.00
2013-2-25,38,31,20,25,22,15,83,70,58,30.14,30.05,6,0,7,0.00
2013-2-26,36,28,19,27,22,15,90,80,69,30.08,29.91,8,1,9,0.00
2013-2-27,41,32,28,26,25,22,83,73,53,30.06,29.90,14,1,16,0.00
2013-2-28,30,29,24,23,21,16,79,72,67,30.25,30.06,9,1,9,0.00